TimePST,TemperatureF,Dew PointF,Humidity,Sea Level PressureIn,VisibilityMPH,Wind Direction,Wind SpeedMPH,Gust SpeedMPH,PrecipitationIn,Events,Conditions,WindDirDegrees,DateUTC
12:56 AM,46.9,45.0,93,30.18,-9999.0,West,8.1,-,N/A,,Clear,270,2012-11-19 08:56:00
1:56 AM,44.1,42.1,93,30.19,-9999.0,West,5.8,-,N/A,,Clear,260,2012-11-19 09:56:00
2:56 AM,43.0,41.0,93,30.19,-9999.0,West,9.2,-,N/A,,Clear,260,2012-11-19 10:56:00
3:56 AM,41.0,39.9,96,30.20,-9999.0,WSW,6.9,-,N/A,,Clear,240,2012-11-19 11:56:00
4:56 AM,39.9,37.9,93,30.22,-9999.0,Calm,Calm,-,N/A,,Clear,0,2012-11-19 12:56:00
5:56 AM,39.9,37.9,93,30.24,-9999.0,Calm,Calm,-,N/A,,Clear,0,2012-11-19 13:56:00
6:56 AM,39.0,37.9,96,30.25,-9999.0,Calm,Calm,-,0.01,,Clear,0,2012-11-19 14:56:00
7:20 AM,41.0,39.2,93,30.25,10.0,SW,5.8,-,N/A,,Partly Cloudy,220,2012-11-19 15:20:00
7:56 AM,46.0,43.0,89,30.27,10.0,WSW,4.6,-,N/A,,Scattered Clouds,250,2012-11-19 15:56:00
8:56 AM,54.0,46.0,75,30.28,10.0,Calm,Calm,-,N/A,,Scattered Clouds,0,2012-11-19 16:56:00
9:56 AM,57.0,46.0,67,30.29,10.0,Calm,Calm,-,N/A,,Scattered Clouds,0,2012-11-19 17:56:00
10:56 AM,62.1,46.9,58,30.28,10.0,Calm,Calm,-,N/A,,Scattered Clouds,0,2012-11-19 18:56:00
11:56 AM,64.0,46.9,54,30.24,10.0,Calm,Calm,-,N/A,,Mostly Cloudy,0,2012-11-19 19:56:00
12:56 PM,64.9,46.0,50,30.23,10.0,East,4.6,-,N/A,,Mostly Cloudy,90,2012-11-19 20:56:00
1:56 PM,66.0,45.0,47,30.22,10.0,SSE,3.5,-,N/A,,Mostly Cloudy,150,2012-11-19 21:56:00
2:56 PM,66.9,44.1,44,30.21,10.0,East,3.5,-,N/A,,Mostly Cloudy,100,2012-11-19 22:56:00
3:56 PM,66.9,44.1,44,30.21,10.0,East,4.6,-,N/A,,Mostly Cloudy,80,2012-11-19 23:56:00
4:56 PM,61.0,45.0,56,30.21,10.0,NE,5.8,-,N/A,,Mostly Cloudy,50,2012-11-20 00:56:00
5:56 PM,55.0,43.0,64,30.22,10.0,NE,4.6,-,N/A,,Scattered Clouds,40,2012-11-20 01:56:00
6:56 PM,55.9,46.0,69,30.22,10.0,Calm,Calm,-,N/A,,Partly Cloudy,0,2012-11-20 02:56:00
7:56 PM,54.0,45.0,72,30.22,10.0,Calm,Calm,-,N/A,,Partly Cloudy,0,2012-11-20 03:56:00
8:56 PM,51.1,42.1,71,30.22,10.0,SW,4.6,-,N/A,,Partly Cloudy,230,2012-11-20 04:56:00
9:56 PM,46.9,41.0,80,30.22,10.0,Calm,Calm,-,N/A,,Partly Cloudy,0,2012-11-20 05:56:00
10:56 PM,46.9,42.1,83,30.21,10.0,Calm,Calm,-,N/A,,Partly Cloudy,0,2012-11-20 06:56:00
11:56 PM,45.0,39.0,80,30.20,10.0,WSW,4.6,-,N/A,,Clear,240,2012-11-20 07:56:00